WILDBLUE-1

Last updated on Sun Aug 31 2025 00:02:46 GMT+0000 (Coordinated Universal Time)

1 29643U 06054A 25242.14740744 -.00000046 00000+0 00000+0 0 9994 2 29643 2.0461 84.2811 0001583 57.1288 139.0541 1.00272199 50875
UTC large
Height (km)
Speed (km/s)
/
Latitude / Longitude
Inclination (degrees)
Orbital Period (minutes)
Azimuth
Elevation
Range (km)
Doppler Factor

Next 0 passes for location: London (51.5072 / 0.1276)

Sorry there are no passes over London.